User: anonymous   Login
Location: Unnamed
(48.2382°N, 16.3826°E)
Time: 07:47:25
(UTC+02:00)
Language:

Falcon 9 debris - Orbit

View from above orbital plane
View from above orbital plane
View from above satellite
View from above satellite

Ground track
Ground track

The orbit data is extracted from the following two-line orbital elements,

1 44298U 19029BR  20265.54330566 +.00001444 +00000-0 +38528-4 0  9998
2 44298 053.0030 018.1029 0005503 050.4599 309.6892 15.45459064076403
Epoch (UTC): 21 September 2020 13:02:21
Eccentricity: 0.0005503
inclination: 53.0030°
perigee height: 426 km
apogee height: 434 km
right ascension of ascending node: 18.1029°
argument of perigee: 50.4599°
revolutions per day: 15.45459064
mean anomaly at epoch: 309.6892°
orbit number at epoch: 7640

The dashed part of the orbit path shows where the satellite is in the earth's shadow,  

DLR